This is the latest recevied weather packets stored in our database for station/object AA8FM-13. If no packets are shown the sender has not sent any weather packets the latest 10 day(s).
| Time | Temp. | Humidity | Pressure | Rain* | Wind** | Luminosity | Snow |
|---|---|---|---|---|---|---|---|
| 1778173340 | 16.11° C | 52% | 1009 hPa | 0 mm | - | 743 W/m² | - |
| 1778173036 | 15.56° C | 50% | 1009.2 hPa | 0 mm | - | 740 W/m² | - |
| 1778172732 | 14.44° C | 50% | 1009.3 hPa | 0 mm | - | 733 W/m² | - |
| 1778172428 | 15° C | 50% | 1009.4 hPa | 0 mm | - | 135 W/m² | - |
| 1778172126 | 14.44° C | 55% | 1009.3 hPa | 0 mm | - | 441 W/m² | - |
| 1778171823 | 14.44° C | 52% | 1009.4 hPa | 0 mm | - | 171 W/m² | - |
| 1778171521 | 15° C | 50% | 1009.3 hPa | 0 mm | - | 740 W/m² | - |
| 1778171216 | 15.56° C | 49% | 1009.5 hPa | 0 mm | - | 703 W/m² | - |
| 1778170912 | 15.56° C | 50% | 1009.7 hPa | 0 mm | - | 718 W/m² | - |
| 1778170609 | 15° C | 52% | 1009.5 hPa | 0 mm | - | 698 W/m² | - |
| 1778170305 | 15.56° C | 49% | 1009.5 hPa | 0 mm | - | 722 W/m² | - |
| 1778170002 | 15° C | 51% | 1009.4 hPa | 0 mm | - | 754 W/m² | - |
| 1778169699 | 15° C | 53% | 1009.7 hPa | 0 mm | - | 725 W/m² | - |
| 1778169394 | 14.44° C | 53% | 1009.9 hPa | 0 mm | - | 725 W/m² | - |
| 1778169091 | 14.44° C | 56% | 1009.9 hPa | 0 mm | - | 363 W/m² | - |
| 1778168787 | 15° C | 54% | 1009.7 hPa | 0 mm | - | 157 W/m² | - |
| 1778168485 | 14.44° C | 53% | 1009.7 hPa | 0 mm | - | 542 W/m² | - |
| 1778168181 | 15° C | 51% | 1010 hPa | 0 mm | - | 751 W/m² | - |
| 1778167878 | 15° C | 57% | 1010 hPa | 0 mm | - | 701 W/m² | - |
| 1778167574 | 13.89° C | 58% | 1010 hPa | 0 mm | - | 673 W/m² | - |
| 1778167270 | 15° C | 54% | 1009.9 hPa | 0 mm | - | 657 W/m² | - |
| 1778166966 | 13.89° C | 55% | 1010 hPa | 0 mm | - | 623 W/m² | - |
| 1778166664 | 13.89° C | 56% | 1010.2 hPa | 0 mm | - | 596 W/m² | - |
| 1778166361 | 13.89° C | 57% | 1009.9 hPa | 0 mm | - | 609 W/m² | - |
| 1778166057 | 13.89° C | 55% | 1010.1 hPa | 0 mm | - | 595 W/m² | - |
* Rain latest hour (hover to see other rain measurements)
** Current wind speed in m/s (hover to see current wind gust speed)